This demonstration page uses our WeatherBlox Daily Observations layout. Learn more.

Left ArrowRight Arrow

41.55636, -103.73856

Hourly Observations for June 28, 2019

Temp ( °F °C ) Dew Point ( °F °C ) Humidity (%) Winds ( mph kmh ) Pressure ( in mb ) Visibility ( mi km ) Precip ( " mm )
12:58 am 00:58 Clear 79 26.1 55 12.9 44 44 S 7 11 29.93 1014 10 16 N/A
1:58 am 01:58 Clear 76 24.6 53 11.7 45 45 S 8 13 29.93 1014 10 16 N/A
2:58 am 02:58 Clear 71 21.7 52 11.2 51 51 S 8 13 29.94 1014 10 16 N/A
3:58 am 03:58 Clear 66 18.8 51 10.7 60 60 S 8 13 29.96 1015 10 16 N/A
4:58 am 04:58 Clear 66 19 53 11.6 62 62 S 14 22 29.95 1014 10 16 N/A
5:58 am 05:58 Clear 67 19.6 52 10.9 57 57 S 14 22 29.95 1014 10 16 N/A
6:58 am 06:58 Clear 62 16.8 52 11.1 69 69 SSW 12 19 29.95 1014 10 16 N/A
7:58 am 07:58 Clear 63 17.3 49 9.5 60 60 SW 13 20 29.94 1014 10 16 N/A
8:58 am 08:58 Clear 63 17.4 47 8.6 56 56 SW 15 24 29.94 1014 10 16 N/A
9:58 am 09:58 Clear 64 17.9 47 8.1 53 53 SW 16 26 29.93 1014 10 16 N/A
10:58 am 10:58 Clear 64 17.5 46 7.6 52 52 SW 16 26 29.94 1014 10 16 N/A
11:58 am 11:58 Sunny 61 16 47 8.5 61 61 WSW 9 15 29.96 1015 10 16 N/A
12:58 pm 12:58 Sunny 68 19.8 50 10.1 54 54 W 7 11 29.96 1015 10 16 N/A
1:58 pm 13:58 Sunny 73 22.5 53 11.7 51 51 WNW 5 7 29.98 1015 10 16 N/A
2:58 pm 14:58 Sunny 76 24.6 55 12.8 48 48 N 7 11 29.99 1016 10 16 N/A
3:58 pm 15:58 Sunny 80 26.9 51 10.3 35 35 N N/A 30.00 1016 10 16 N/A
4:58 pm 16:58 Sunny 84 28.9 50 9.9 31 31 W 10 17 30.01 1016 10 16 N/A
5:58 pm 17:58 Sunny 88 31.2 37 2.7 16 16 NNW 5 7 29.99 1016 10 16 N/A
6:58 pm 18:58 Sunny 89 31.8 43 6.3 20 20 N 9 15 29.98 1015 10 16 N/A
7:58 pm 19:58 Sunny 90 32.3 44 6.7 20 20 NNW 6 9 29.98 1015 10 16 N/A
8:58 pm 20:58 Sunny 90 32.2 37 2.6 15 15 SSE 6 9 29.97 1015 10 16 N/A
9:58 pm 21:58 Sunny 90 32.3 44 6.7 20 20 N N/A 29.97 1015 10 16 N/A
10:58 pm 22:58 Sunny 89 31.7 45 7.2 22 22 E 12 19 29.96 1015 10 16 N/A
11:58 pm 23:58 Sunny 87 30.4 45 7.3 23 23 E 16 26 29.96 1015 10 16 N/A

Powered by AerisWeather